STARLINK-3999 (52704 NORAD) Tracking and Keplerian Element Data
This shows tracking and keplerian element data for the satellite.
Feedback or suggestion? Click here.
Element | Value |
Catalog | 52704 |
Name | STARLINK-3999 |
Epoch Orbit | 130 |
Epoch Day | 228.91667824 |
Epoch Year | 2022 |
RAAN | 213.9034 |
Inclination | 53.2173 |
Eccentricity | 0.0001695 |
Argument of Perigee | 42.1725 |
Mean Anonmoly | 50.5819 |
Mean Motion | 15.2384634 |
Decay Rate | -0.01063562 |
L1 | 1 52704U 22053BA 22228.91667824 -.01063562 00000+0 -47536-1 0 9999 |
L2 | 2 52704 53.2173 213.9034 0001695 42.1725 50.5819 15.23846340 1303 |
Live tracking and technical data element details for STARLINK-3999 (NORAD 52704). STARLINK-3999 can be tracked NOW for your location showing map with azimuth and elevation plus other details from your city location.
Track the satellite on the map from your city or location and see movement details for azimuth, elevation, latitude, longitude, range, height, and movement on the map or in text.
IsCatalogInMostPopularTable: catalog: 52704, numindb: 9
Update: records affected: 1
GetName: 52704 STARLINK-3999
Hit Count: updated at: Thu, 18 Aug 2022 18:58:52 GMT